Weather History for Chicopee, MA

Change the Weather History Date:

Tuesday, January 22, 2013

  Actual Average Record
Temperature  
Mean Temperature 16 °F -  
Max Temperature 21 °F 28 °F 48 °F (1997)
Min Temperature 10 °F 13 °F -11 °F (2005)
Degree Days  
Heating Degree Days 49    
Moisture  
Dew Point 11 °F    
Average Humidity 78    
Maximum Humidity 100    
Minimum Humidity 36    
Precipitation  
Precipitation 0.03 in - - ()
Sea Level Pressure  
Sea Level Pressure 29.90 in    
Wind  
Wind Speed 4 mph (WNW)    
Max Wind Speed 22 mph    
Max Gust Speed 28 mph    
Visibility 7 miles    
Events Snow    
Averages and records for this station are not official NWS values.
T = Trace of Precipitation, MM = Missing Value Source: NWS Daily Summary

Daily Weather History Graph

Daily Weather History Graph

Search for Another Location

Airport:

Trip Planner

Search our weather history database for the weather conditions in past years. The results will help you decide how hot, cold, wet, or windy it might be!

Date:

Astronomy

Jan. 22, 2013 Rise Set
Actual Time 7:11 AM EST 4:52 PM EST
Civil Twilight 6:41 AM EST 5:22 PM EST
Nautical Twilight 6:07 AM EST 5:56 PM EST
Astronomical Twilight 5:34 AM EST 6:29 PM EST
Moon 1:12 PM EST (1/22) 3:31 AM EST (1/22)
Length of Visible Light 10h 41m
Length of Day
9h 40m
Waxing Gibbous, 82% of the Moon is Illuminated
Jan 22
Waxing Gibbous
Jan 26
Full
Feb 3
Last Quarter
Feb 10
New
Feb 17
First Quarter

Hourly Weather History & Observations

Time (EST) Temp. Windchill Dew Point Humidity Pressure Visibility Wind Dir Wind Speed Gust Speed Precip Events Conditions
12:03 AM 17.6 °F - 15.8 °F 93% 29.80 in 10.0 mi Calm Calm - N/A   Mostly Cloudy
12:46 AM 19.4 °F - 17.6 °F 93% 29.78 in 10.0 mi Calm Calm - N/A   Overcast
12:55 AM 19.8 °F - 18.5 °F 95% 29.78 in 10.0 mi Calm Calm - N/A   Overcast
12:56 AM 19.4 °F - 19.4 °F 100% 29.78 in 10.0 mi Calm Calm - N/A   Overcast
1:04 AM 19.4 °F - 17.6 °F 93% 29.78 in 10.0 mi Calm Calm - N/A Snow Light Snow
1:05 AM 19.4 °F - 17.6 °F 93% 29.78 in 10.0 mi Calm Calm - N/A Snow Light Snow
1:17 AM 19.4 °F - 17.6 °F 93% 29.78 in 10.0 mi Calm Calm - N/A   Mostly Cloudy
1:35 AM 17.6 °F - 15.8 °F 93% 29.78 in 10.0 mi Calm Calm - N/A Snow Light Snow
1:55 AM 17.4 °F - 16.0 °F 94% 29.78 in 9.0 mi Calm Calm - 0.00 in Snow Light Snow
1:57 AM 17.6 °F - 15.8 °F 93% 29.78 in 8.0 mi Calm Calm - N/A Snow Light Snow
2:04 AM 17.6 °F - 15.8 °F 93% 29.78 in 4.0 mi Calm Calm - N/A Snow Light Snow
2:06 AM 17.6 °F - 15.8 °F 93% 29.78 in 2.5 mi Calm Calm - N/A Snow Light Snow
2:08 AM 17.6 °F - 15.8 °F 93% 29.78 in 2.0 mi Calm Calm - N/A Snow Light Snow
2:09 AM 17.6 °F 12.3 °F 15.8 °F 93% 29.78 in 1.8 mi NNE 3.5 mph - N/A Snow Light Snow
2:15 AM 17.6 °F 10.7 °F 17.6 °F 100% 29.79 in 2.0 mi North 4.6 mph - N/A Snow Light Snow
2:17 AM 17.6 °F 12.3 °F 17.6 °F 100% 29.79 in 2.5 mi North 3.5 mph - N/A Snow Light Snow
2:18 AM 17.6 °F - 17.6 °F 100% 29.79 in 2.5 mi Calm Calm - N/A Snow Light Snow
2:19 AM 19.4 °F - 17.6 °F 93% 29.79 in 3.0 mi Calm Calm - N/A Snow Light Snow
2:20 AM 19.4 °F - 17.6 °F 93% 29.79 in 2.5 mi Calm Calm - N/A Snow Light Snow
2:22 AM 19.4 °F - 17.6 °F 93% 29.79 in 2.0 mi Calm Calm - N/A Snow Light Snow
2:23 AM 19.4 °F - 17.6 °F 93% 29.79 in 1.8 mi Calm Calm - N/A Snow Light Snow
2:24 AM 19.4 °F - 17.6 °F 93% 29.79 in 1.5 mi Calm Calm - N/A Snow Light Snow
2:25 AM 19.4 °F - 17.6 °F 93% 29.79 in 1.2 mi Calm Calm - N/A Snow Light Snow
2:27 AM 19.4 °F - 17.6 °F 93% 29.78 in 1.0 mi Calm Calm - N/A Snow Light Snow
2:29 AM 19.4 °F 14.3 °F 17.6 °F 93% 29.78 in 1.0 mi South 3.5 mph - N/A Snow Light Snow
2:30 AM 19.4 °F 14.3 °F 17.6 °F 93% 29.79 in 1.0 mi SSE 3.5 mph - N/A Snow Light Snow
2:31 AM 19.4 °F 14.3 °F 17.6 °F 93% 29.79 in 1.2 mi SSE 3.5 mph - N/A Snow Light Snow
2:33 AM 19.4 °F - 17.6 °F 93% 29.79 in 1.5 mi Calm Calm - N/A Snow Light Snow
2:34 AM 19.4 °F - 17.6 °F 93% 29.79 in 1.8 mi Calm Calm - N/A Snow Light Snow
2:35 AM 19.4 °F - 17.6 °F 93% 29.79 in 2.0 mi Calm Calm - N/A Snow Light Snow
2:36 AM 19.4 °F - 17.6 °F 93% 29.79 in 2.5 mi Calm Calm - N/A Snow Light Snow
2:37 AM 19.4 °F - 17.6 °F 93% 29.79 in 3.0 mi Calm Calm - N/A Snow Light Snow
2:38 AM 19.4 °F - 17.6 °F 93% 29.79 in 4.0 mi Calm Calm - N/A Snow Light Snow
2:40 AM 19.4 °F - 17.6 °F 93% 29.79 in 7.0 mi Calm Calm - N/A Snow Light Snow
2:41 AM 19.4 °F - 17.6 °F 93% 29.79 in 8.0 mi Calm Calm - N/A Snow Light Snow
2:49 AM 17.6 °F - 17.6 °F 100% 29.78 in 10.0 mi Calm Calm - N/A   Mostly Cloudy
2:55 AM 18.1 °F - 16.7 °F 94% 29.79 in 10.0 mi Calm Calm - 0.01 in   Mostly Cloudy
3:55 AM 17.6 °F 5.7 °F 16.2 °F 94% 29.80 in 10.0 mi West 10.4 mph - 0.00 in   Scattered Clouds
4:55 AM 18.0 °F 4.8 °F 10.6 °F 73% 29.81 in 10.0 mi WNW 12.7 mph - N/A   Clear
5:55 AM 17.1 °F 3.0 °F 8.1 °F 68% 29.84 in 10.0 mi WNW 13.8 mph - N/A   Clear
6:55 AM 16.5 °F 1.8 °F 6.6 °F 65% 29.89 in 10.0 mi NW 15.0 mph 21.9 mph N/A   Clear
7:55 AM 16.5 °F 2.4 °F 2.3 °F 54% 29.90 in 10.0 mi NW 13.8 mph 27.6 mph N/A   Clear
8:55 AM 17.1 °F 4.3 °F -0.6 °F 46% 29.92 in 10.0 mi WNW 11.5 mph 24.2 mph N/A   Clear
9:55 AM 18.3 °F 5.2 °F -1.3 °F 42% 29.94 in 10.0 mi WNW 12.7 mph 24.2 mph N/A   Clear
10:55 AM 19.8 °F 7.1 °F -0.8 °F 41% 29.94 in 10.0 mi WNW 12.7 mph - N/A   Clear
11:55 AM 19.8 °F 5.0 °F -2.2 °F 38% 29.92 in 10.0 mi NW 17.3 mph - N/A   Clear
12:55 PM 21.0 °F 9.3 °F -2.2 °F 36% 29.91 in 10.0 mi NW 11.5 mph - 0.02 in   Clear
1:55 PM 21.2 °F 6.8 °F -2.0 °F 36% 29.91 in 10.0 mi West 17.3 mph 27.6 mph N/A   Clear
2:55 PM 21.4 °F 8.5 °F -2.0 °F 36% 29.94 in 10.0 mi WNW 13.8 mph 21.9 mph N/A   Scattered Clouds
3:55 PM 19.9 °F 3.5 °F -2.7 °F 37% 29.96 in 10.0 mi WNW 21.9 mph - N/A   Scattered Clouds
4:55 PM 16.7 °F 2.0 °F -3.6 °F 41% 30.00 in 10.0 mi WNW 15.0 mph - N/A   Clear
5:55 PM 15.3 °F 1.4 °F -1.1 °F 48% 30.04 in 10.0 mi WNW 12.7 mph 21.9 mph N/A   Clear
6:55 PM 12.6 °F 0.2 °F 0.7 °F 59% 30.06 in 10.0 mi WNW 9.2 mph - N/A   Clear
7:30 PM 14.0 °F -0.2 °F 3.2 °F 62% 30.07 in 10.0 mi WNW 12.7 mph 23.0 mph N/A Snow Light Snow
7:50 PM 14.0 °F 1.2 °F 6.8 °F 73% 30.07 in 6.0 mi WNW 10.4 mph - N/A Snow Light Snow
7:52 PM 14.0 °F -0.8 °F 6.8 °F 73% 30.07 in 6.0 mi WNW 13.8 mph - N/A Snow Light Snow
7:55 PM 14.0 °F 1.2 °F 7.3 °F 75% 30.07 in 6.0 mi WNW 10.4 mph - 0.00 in Snow Light Snow
7:59 PM 14.0 °F -3.0 °F 6.8 °F 73% 30.07 in 7.0 mi WNW 18.4 mph 21.9 mph N/A Snow Light Snow
8:09 PM 14.0 °F -1.4 °F 5.0 °F 67% 30.07 in 10.0 mi NW 15.0 mph - N/A   Scattered Clouds
8:55 PM 13.5 °F -1.5 °F 3.6 °F 65% 30.08 in 10.0 mi WNW 13.8 mph - 0.00 in   Mostly Cloudy
9:04 PM 14.0 °F -0.8 °F 5.0 °F 67% 30.08 in 10.0 mi West 13.8 mph - N/A Snow Light Snow
9:12 PM 14.0 °F -1.4 °F 8.6 °F 79% 30.09 in 4.0 mi West 15.0 mph - N/A Snow Light Snow
9:19 PM 14.0 °F -1.4 °F 8.6 °F 79% 30.09 in 2.5 mi West 15.0 mph - N/A Snow Light Snow
9:21 PM 14.0 °F -1.4 °F 8.6 °F 79% 30.09 in 2.5 mi West 15.0 mph - N/A Snow Light Snow
9:26 PM 12.2 °F -3.1 °F 8.6 °F 85% 30.09 in 2.5 mi WNW 13.8 mph - N/A Snow Light Snow
9:28 PM 12.2 °F -3.7 °F 8.6 °F 85% 30.09 in 2.5 mi WNW 15.0 mph - N/A Snow Light Snow
9:33 PM 12.2 °F -3.1 °F 8.6 °F 85% 30.09 in 3.0 mi WNW 13.8 mph - N/A Snow Light Snow
9:45 PM 12.2 °F -3.7 °F 5.0 °F 73% 30.09 in 10.0 mi WNW 15.0 mph 21.9 mph N/A Snow Light Snow
9:48 PM 12.2 °F -3.1 °F 3.2 °F 67% 30.09 in 10.0 mi WNW 13.8 mph - N/A Snow Light Snow
9:55 PM 12.9 °F -2.8 °F 4.6 °F 70% 30.09 in 10.0 mi WNW 15.0 mph - 0.00 in Snow Light Snow
10:14 PM 12.2 °F -3.1 °F 5.0 °F 73% 30.10 in 10.0 mi WNW 13.8 mph - N/A   Partly Cloudy
10:55 PM 11.5 °F -2.7 °F -1.8 °F 55% 30.11 in 10.0 mi WNW 11.5 mph - 0.00 in   Clear
11:55 PM 10.4 °F -4.8 °F -5.3 °F 49% 30.11 in 10.0 mi West 12.7 mph - N/A   Clear